This demonstration page uses our WeatherBlox Daily Observations layout. Learn more.

Left ArrowRight Arrow

39.51506, -84.39828

Hourly Observations for May 3, 2021

Temp ( °F °C ) Dew Point ( °F °C ) Humidity (%) Winds ( mph kmh ) Pressure ( in mb ) Visibility ( mi km ) Precip ( " mm )
12:15 am 00:15 Cloudy with Light Rain 60 15.6 55 12.5 82 82 SSW 6 9 29.81 1009 10 16 0.00 0.00
12:35 am 00:35 Cloudy with Light Rain 60 15.4 55 12.7 84 84 SSW 5 7 29.80 1009 10 16 0.01 0.25
12:55 am 00:55 Cloudy with Light Rain 59 15.1 56 13.4 90 90 Calm 29.80 1009 10 16 0.01 0.25
1:15 am 01:15 Cloudy with Light Rain 58 14.7 56 13.2 91 91 SSE 7 11 29.79 1009 10 16 0.01 0.25
1:35 am 01:35 Cloudy with Light Rain 58 14.6 55 13 90 90 S 6 9 29.78 1008 10 16 0.01 0.25
1:55 am 01:55 Cloudy with Light Rain 58 14.5 55 12.8 90 90 SSE 7 11 29.77 1008 10 16 0.02 0.51
2:15 am 02:15 Cloudy with Light Rain 58 14.4 55 12.8 90 90 SSE 6 9 29.77 1008 10 16 0.00 0.00
2:35 am 02:35 Cloudy with Light Rain 58 14.5 55 12.7 89 89 SSE 6 9 29.76 1008 10 16 0.00 0.00
2:55 am 02:55 Cloudy with Light Rain 58 14.4 55 13 91 91 SSE 6 9 29.75 1007 10 16 0.01 0.25
3:15 am 03:15 Cloudy with Light Rain 58 14.3 56 13.3 94 94 SSE 6 9 29.75 1007 10 16 0.01 0.25
3:35 am 03:35 Cloudy with Light Rain 58 14.2 56 13.4 95 95 SSE 7 11 29.74 1007 10 16 0.01 0.25
3:55 am 03:55 Cloudy with Light Rain 57 14.1 57 13.7 97 97 SSE 6 9 29.73 1007 10 16 0.02 0.51
4:15 am 04:15 Cloudy with Light Rain 57 14.1 57 13.9 99 99 SSE 6 9 29.72 1006 10 16 0.01 0.25
4:35 am 04:35 Cloudy with Light Rain 58 14.2 57 14.1 99 99 SSE 6 9 29.72 1006 10 16 0.01 0.25
4:55 am 04:55 Cloudy with Light Rain 58 14.3 58 14.2 99 99 SSE 6 9 29.70 1006 7 11 0.02 0.51
5:15 am 05:15 Cloudy 57 14 57 14 100 100 SE 3 6 29.70 1006 10 16 0.00 0.00
5:35 am 05:35 Cloudy with Light Rain 57 14 N/A N/A SE 6 9 29.69 1005 10 16 0.00 0.00
5:55 am 05:55 Cloudy with Light Rain 59 15 N/A N/A SE 3 6 29.68 1005 10 16 0.01 0.25
6:15 am 06:15 Cloudy with Heavy Rain 59 15 N/A N/A ESE 3 6 29.67 1005 2 3 0.11 2.79
6:35 am 06:35 Cloudy with Light Rain 59 15 N/A N/A SE 5 7 29.67 1005 7 11 0.15 3.81
6:55 am 06:55 Cloudy with Light Rain 59 15.2 59 15.2 100 100 Calm 29.67 1005 10 16 0.15 3.81
7:15 am 07:15 Cloudy with Rain 60 15.3 59 15 98 98 S 7 11 29.67 1005 10 16 0.00 0.00
7:35 am 07:35 Cloudy with Light Rain 59 15.2 59 14.9 98 98 SSE 6 9 29.67 1005 10 16 0.01 0.25
7:55 am 07:55 Cloudy with Light Rain 59 15.1 59 15 99 99 SSE 5 7 29.67 1005 4 6 0.04 1.02
8:15 am 08:15 Cloudy with Light Rain 59 15.2 59 15.1 99 99 SSE 6 9 29.67 1005 10 16 0.00 0.00
8:35 am 08:35 Cloudy with Light Rain 60 15.3 59 15.2 99 99 S 3 6 29.66 1004 10 16 0.00 0.00
8:55 am 08:55 Cloudy with Light Rain 60 15.5 60 15.4 99 99 S 5 7 29.66 1004 5 8 0.02 0.51
9:15 am 09:15 Cloudy with Light Rain 61 16 N/A N/A S 7 11 29.65 1004 5 8 0.03 0.76
9:35 am 09:35 Cloudy with Light Rain 61 16 N/A N/A S 8 13 29.64 1004 10 16 0.03 0.76
9:55 am 09:55 Cloudy 63 17 N/A N/A SSW 9 15 29.64 1004 10 16 0.03 0.76
10:15 am 10:15 Cloudy 63 17.2 63 17.1 99 99 SSW 9 15 29.63 1003 10 16 0.00 0.00
10:35 am 10:35 Cloudy 64 17.9 64 17.6 98 98 SSW 9 15 29.63 1003 10 16 0.00 0.00
10:55 am 10:55 Cloudy 65 18.3 64 17.9 98 98 SSW 8 13 29.63 1003 10 16 0.00 0.00
11:15 am 11:15 Cloudy 66 18.7 65 18.1 96 96 SW 7 11 29.62 1003 10 16 0.00 0.00
11:35 am 11:35 Cloudy 67 19.2 65 18.1 93 93 WSW 13 20 29.62 1003 10 16 0.00 0.00
11:55 am 11:55 Cloudy 67 19.4 64 18 92 92 WSW 9 15 29.62 1003 10 16 0.00 0.00
12:15 pm 12:15 Cloudy with Heavy Rain 65 18.6 65 18.5 99 99 WSW 5 7 29.62 1003 2 2 0.04 1.02
12:35 pm 12:35 Cloudy with Light Rain 66 19 N/A N/A WSW 8 13 29.62 1003 4 6 0.07 1.78
12:55 pm 12:55 Cloudy 67 19.7 66 19.1 96 96 WSW 10 17 29.62 1003 10 16 0.07 1.78
1:15 pm 13:15 Cloudy with Light Rain 68 19.9 66 19 95 95 WSW 13 20 29.62 1003 7 11 0.01 0.25
1:35 pm 13:35 Cloudy with Light Rain 67 19.4 66 19 98 98 W 10 17 29.62 1003 7 11 0.04 1.02
1:55 pm 13:55 Mostly Cloudy 69 20.3 67 19.6 96 96 WSW 12 19 29.61 1003 10 16 0.04 1.02
2:15 pm 14:15 Cloudy 69 20.4 66 18.9 91 91 W 10 17 29.61 1003 10 16 0.00 0.00
2:35 pm 14:35 Cloudy 70 21.1 66 19 88 88 WSW 12 19 29.61 1003 10 16 0.00 0.00
2:55 pm 14:55 Mostly Cloudy 71 21.7 68 19.9 90 90 WSW 12 19 29.60 1002 10 16 0.00 0.00
3:15 pm 15:15 Cloudy 71 21.7 67 19.3 86 86 SW 12 19 29.60 1002 10 16 0.00 0.00
3:35 pm 15:35 Cloudy 71 21.7 65 18.5 82 82 W 12 19 29.60 1002 10 16 0.00 0.00
3:55 pm 15:55 Cloudy 73 22.7 66 19 80 80 W 10 17 29.60 1002 10 16 0.00 0.00
4:15 pm 16:15 Mostly Cloudy 73 22.8 66 18.7 78 78 W 10 17 29.60 1002 10 16 0.00 0.00
4:35 pm 16:35 Mostly Cloudy 74 23.5 65 18.5 74 74 W 12 19 29.61 1003 10 16 0.00 0.00
4:55 pm 16:55 Mostly Cloudy 73 22.5 64 17.9 75 75 W 15 24 29.62 1003 10 16 0.00 0.00
5:15 pm 17:15 Mostly Cloudy 73 22.5 64 17.7 74 74 W 14 22 29.62 1003 10 16 0.00 0.00
5:35 pm 17:35 Mostly Cloudy 72 22.4 64 17.7 75 75 W 14 22 29.63 1003 10 16 0.00 0.00
5:55 pm 17:55 Cloudy 71 21.7 64 17.7 78 78 W 9 15 29.63 1003 10 16 0.00 0.00
6:15 pm 18:15 Partly Cloudy 71 21.9 64 17.5 76 76 W 13 20 29.63 1003 10 16 0.00 0.00
6:35 pm 18:35 Partly Cloudy 73 22.6 64 17.9 75 75 W 10 17 29.63 1003 10 16 0.00 0.00
6:55 pm 18:55 Sunny 72 22.1 64 17.5 75 75 W 14 22 29.64 1004 10 16 0.00 0.00
7:15 pm 19:15 Partly Cloudy 71 21.5 64 17.5 78 78 W 8 13 29.65 1004 10 16 0.00 0.00
7:35 pm 19:35 Mostly Cloudy 70 21.3 64 17.5 79 79 W 9 15 29.66 1004 10 16 0.00 0.00
7:55 pm 19:55 Partly Cloudy 70 20.9 63 17.3 80 80 W 7 11 29.66 1004 10 16 0.00 0.00
8:15 pm 20:15 Mostly Cloudy 69 20.4 64 17.6 84 84 W 6 9 29.67 1005 10 16 0.00 0.00
8:35 pm 20:35 Mostly Cloudy 68 20.1 64 17.5 85 85 W 5 7 29.68 1005 10 16 0.00 0.00
8:55 pm 20:55 Cloudy 68 19.8 64 17.5 87 87 W 3 6 29.70 1006 10 16 0.00 0.00
9:15 pm 21:15 Cloudy 66 18.8 65 18.3 97 97 WSW 3 6 29.70 1006 10 16 0.00 0.00
9:35 pm 21:35 Cloudy 64 18 64 18 100 100 Calm 29.71 1006 10 16 0.00 0.00
9:55 pm 21:55 Cloudy 64 18 N/A N/A Calm 29.72 1006 10 16 0.00 0.00
10:15 pm 22:15 Cloudy 64 18 N/A N/A Calm 29.72 1006 10 16 0.00 0.00
10:35 pm 22:35 Cloudy 64 18 N/A N/A Calm 29.74 1007 10 16 0.00 0.00
10:55 pm 22:55 Cloudy 64 18 N/A N/A Calm 29.74 1007 10 16 0.00 0.00
11:15 pm 23:15 Mostly Cloudy 64 18 N/A N/A Calm 29.73 1007 10 16 0.00 0.00
11:35 pm 23:35 Mostly Cloudy with Mist and Fog 63 17 N/A N/A Calm 29.73 1007 2 3 0.00 0.00
11:55 pm 23:55 Cloudy with Mist and Fog 61 16 N/A N/A Calm 29.73 1007 2 2 0.00 0.00

Powered by AerisWeather